840  
NZUS93 KARX 222310  
HRRWXR  
 
CURRENT HOURLY OBSERVATIONS ACROSS  
MUCH OF THE UPPER MISSISSIPPI VALLEY  
NATIONAL WEATHER SERVICE LA CROSSE WI  
500 PM CST SAT NOV 22 2014  
 
   
..SOUTHEAST MINNESOTA
 
 
 
CITY SKY/WX TMP DP RH WIND PRES REMARKS  
ROCHESTER FOG 37 36 96 S8 29.68F VSB 1/4 WCI 31  
ROCHESTER/MAYO CLOUDY 38 37 97 SE6 29.68F VSB 1/2 WCI 33  
WINONA CLOUDY 37 36 93 SE3 29.72F FOG  
AUSTIN CLOUDY 37 37 100 S6 29.66F FOG WCI 33  
ALBERT LEA CLOUDY 39 39 100 S9 29.64F FOG WCI 33  
DODGE CENTER FOG 37 37 100 S8 29.65F VSB 1/4 WCI 31  
PRESTON FOG 38 37 99 S8 29.69F VSB 1/4 WCI 32  
OWATONNA FOG 37 36 93 S7 29.63F VSB 1 WCI 32  
FARIBAULT CLOUDY 36 36 100 S6 29.64F FOG WCI 31  

 
   
..ELSEWHERE IN MINNESOTA
 
 
 
CITY SKY/WX TMP DP RH WIND PRES REMARKS  
MINNEAPOLIS CLOUDY 35 33 92 S8 29.65F FOG WCI 29  
INTNL FALLS CLOUDY 35 29 78 E8 29.54F WCI 29  
DULUTH CLOUDY 35 31 85 S9 29.61F FOG WCI 28  
RED WING N/A 37 36 93 S3 29.68F FOG  
REDWOOD FALLS CLOUDY 37 34 89 SE14 29.55F FOG WCI 28  
MANKATO CLOUDY 37 34 87 S12 29.61F WCI 30  
WORTHINGTON PTCLDY 37 36 93 S17 29.54F WCI 28  
FAIRMONT CLOUDY 37 34 87 S16 29.59F WCI 28  

 
   
..SOUTHWEST WISCONSIN
 
 
 
CITY SKY/WX TMP DP RH WIND PRES REMARKS  
LA CROSSE CLOUDY 40 37 89 S5 29.74S  
PRAIRIE DU CHI CLOUDY 43 40 91 E3 29.73F  
BOSCOBEL CLOUDY 42 40 92 CALM 29.76S FOG  
LONE ROCK CLOUDY 43 37 79 E3 29.77S HAZE  
PLATTEVILLE CLOUDY 47 46 96 S9 29.77S  
FORT MC COY CLOUDY 38 38 99 S5 29.75S FOG WCI 35  
CAMP DOUGLAS CLOUDY 40 40 100 S6 29.74S  
VIROQUA CLOUDY 39 39 100 S5 29.73F VSB 1/4  
WIS DELLS CLOUDY 40 39 95 SW7 29.76S FOG  

 
   
..ELSEWHERE IN WISCONSIN
 
 
 
CITY SKY/WX TMP DP RH WIND PRES REMARKS  
MILWAUKEE MOCLDY 47 43 86 SW14 29.81F  
MADISON CLOUDY 44 41 89 S5 29.78S  
GREEN BAY FOG 37 37 100 S3 29.77S VSB 1/4  
EAU CLAIRE CLOUDY 36 35 96 S5 29.70F FOG WCI 32  
BLACK RVR FLS CLOUDY 39 39 99 SW5 29.73R FOG  
MEDFORD FOG 33 33 99 CALM 29.70S VSB 1/4  
WAUSAU FOG 34 34 100 S6 29.72R VSB 1/4 WCI 29  
WIS RAPIDS CLOUDY 38 35 89 S3 29.75S  
MARSHFIELD FOG 36 35 96 S3 29.72S VSB 1/4  
RICE LAKE CLOUDY 34 33 93 SE7 29.70S FOG WCI 28  

 
   
..NORTHEAST IOWA
 
 
 
CITY SKY/WX TMP DP RH WIND PRES REMARKS  
DECORAH CLOUDY 41 41 100 CALM 29.71S FOG  
MASON CITY CLEAR 36 36 100 S8 29.68F FOG WCI 30  
CHARLES CITY N/A 41 41 100 S7 29.69F  
OELWEIN CLEAR 46 45 93 S16 29.73S  

 
   
..ELSEWHERE IN IOWA
 
 
 
CITY SKY/WX TMP DP RH WIND PRES REMARKS  
DES MOINES DRZL/FOG 51 49 92 S10 29.72F VSB 3/4  
IOWA CITY CLOUDY 53 50 89 S13 29.79F  
FORT DODGE PTCLDY 45 37 76 S6 29.66F  

 
   
..NORTHERN ILLINOIS
 
 
 
CITY SKY/WX TMP DP RH WIND PRES REMARKS  
CHICAGO-OHARE CLOUDY 50 45 83 S14 29.85F  
CHICAGO-MIDWAY CLOUDY 52 47 83 SW12G20 29.88S  
MOLINE CLOUDY 55 49 80 S13 29.80F  
ROCKFORD CLOUDY 47 44 90 S9 29.84F  
PEORIA CLOUDY 57 47 69 S17 29.88F  

 
 
NOTE: "FAIR" INDICATES FEW OR NO CLOUDS BELOW 12,000 FEET WITH NO  
SIGNIFICANT WEATHER AND/OR OBSTRUCTIONS TO VISIBILITY. WIND  
SPEEDS ARE IN MILES-PER-HOUR.  
 
CLICK HERE TO GO TO PREVIOUS BULLETINS.

The Nexlab WI Page
The Nexlab IA Page
The Nexlab MN Page Main Text Page